Weather History for Three Rivers, MI

Change the Weather History Date:

Friday, January 15, 2010

  Actual Average Record
Temperature  
Mean Temperature 34 °F -  
Max Temperature 35 °F 28 °F 58 °F (1953)
Min Temperature 32 °F 13 °F -18 °F (1979)
Degree Days  
Heating Degree Days 32    
Moisture  
Dew Point 30 °F    
Average Humidity 85    
Maximum Humidity 100    
Minimum Humidity 70    
Precipitation  
Precipitation 0.00 in - - ()
Sea Level Pressure  
Sea Level Pressure 30.21 in    
Wind  
Wind Speed 5 mph (WNW)    
Max Wind Speed 12 mph    
Max Gust Speed -    
Visibility 6 miles    
Events      
Averages and records for this station are not official NWS values.
T = Trace of Precipitation, MM = Missing Value Source: NWS Daily Summary

Daily Weather History Graph

Daily Weather History Graph

Search for Another Location

Airport:

Trip Planner

Search our weather history database for the weather conditions in past years. The results will help you decide how hot, cold, wet, or windy it might be!

Date:

Astronomy

Jan. 15, 2010 Rise Set
Actual Time 8:07 AM EST 5:36 PM EST
Civil Twilight 7:37 AM EST 6:07 PM EST
Nautical Twilight 7:02 AM EST 6:41 PM EST
Astronomical Twilight 6:29 AM EST 7:14 PM EST
Moon 8:19 AM EST (1/15) 6:10 PM EST (1/15)
Length of Visible Light 10h 30m
Length of Day
9h 28m
New Moon, 0% of the Moon is Illuminated
Jan 15
New Moon
Jan 23
First Quarter
Jan 30
Full
Feb 5
Last Quarter
Feb 13
New

Hourly Weather History & Observations

Time (EST) Temp. Windchill Dew Point Humidity Pressure Visibility Wind Dir Wind Speed Gust Speed Precip Events Conditions
12:17 AM 35.6 °F 29.2 °F 32.0 °F 87% 30.09 in 10.0 mi WSW 8.1 mph - N/A   Overcast
12:37 AM 35.6 °F 29.2 °F 32.0 °F 87% 30.10 in 7.0 mi West 8.1 mph - N/A   Overcast
12:55 AM 35.6 °F 29.2 °F 32.0 °F 87% 30.10 in 7.0 mi WSW 8.1 mph - N/A   Overcast
1:17 AM 35.6 °F 29.9 °F 32.0 °F 87% 30.10 in 7.0 mi West 6.9 mph - N/A   Overcast
1:37 AM 35.6 °F 30.7 °F 32.0 °F 87% 30.10 in 7.0 mi WSW 5.8 mph - N/A   Overcast
1:55 AM 35.6 °F 28.6 °F 32.0 °F 87% 30.10 in 7.0 mi West 9.2 mph - N/A   Overcast
2:17 AM 35.6 °F 29.9 °F 32.0 °F 87% 30.10 in 5.0 mi West 6.9 mph - N/A   Overcast
2:37 AM 35.6 °F 27.5 °F 32.0 °F 87% 30.11 in 4.0 mi West 11.5 mph - N/A   Overcast
2:55 AM 33.8 °F 27.0 °F 32.0 °F 93% 30.12 in 4.0 mi West 8.1 mph - N/A   Overcast
3:17 AM 33.8 °F 27.7 °F 32.0 °F 93% 30.13 in 4.0 mi West 6.9 mph - N/A   Overcast
3:36 AM 33.8 °F 26.4 °F 32.0 °F 93% 30.14 in 4.0 mi West 9.2 mph - N/A   Overcast
3:55 AM 33.8 °F 28.6 °F 32.0 °F 93% 30.14 in 4.0 mi WNW 5.8 mph - N/A   Overcast
4:17 AM 33.8 °F 28.6 °F 32.0 °F 93% 30.14 in 4.0 mi WNW 5.8 mph - N/A   Overcast
4:37 AM 33.8 °F 26.4 °F 32.0 °F 93% 30.14 in 5.0 mi WNW 9.2 mph - N/A   Overcast
4:55 AM 33.8 °F 27.7 °F 32.0 °F 93% 30.15 in 4.0 mi WNW 6.9 mph - N/A   Overcast
5:17 AM 33.8 °F 28.6 °F 32.0 °F 93% 30.16 in 4.0 mi NW 5.8 mph - N/A   Overcast
5:37 AM 33.8 °F 28.6 °F 32.0 °F 93% 30.16 in 4.0 mi NW 5.8 mph - N/A   Overcast
5:55 AM 33.8 °F 27.7 °F 32.0 °F 93% 30.17 in 3.0 mi NNW 6.9 mph - N/A   Overcast
6:16 AM 33.8 °F 29.6 °F 32.0 °F 93% 30.18 in 2.5 mi NNW 4.6 mph - N/A   Overcast
6:37 AM 33.8 °F 28.6 °F 32.0 °F 93% 30.19 in 3.0 mi NNW 5.8 mph - N/A   Overcast
6:55 AM 33.8 °F 29.6 °F 32.0 °F 93% 30.21 in 3.0 mi NW 4.6 mph - N/A   Overcast
7:17 AM 33.8 °F 30.8 °F 32.0 °F 93% 30.22 in 3.0 mi NW 3.5 mph - N/A   Overcast
7:37 AM 33.8 °F 30.8 °F 32.0 °F 93% 30.22 in 4.0 mi NW 3.5 mph - N/A   Overcast
7:55 AM 33.8 °F - 32.0 °F 93% 30.22 in 4.0 mi Calm Calm - N/A   Overcast
8:17 AM 33.8 °F - 32.0 °F 93% 30.22 in 4.0 mi Calm Calm - N/A   Overcast
8:37 AM 32.0 °F - 32.0 °F 100% 30.23 in 4.0 mi Calm Calm - N/A   Overcast
8:55 AM 33.8 °F - 32.0 °F 93% 30.24 in 4.0 mi Calm Calm - N/A   Overcast
9:16 AM 33.8 °F 30.8 °F 32.0 °F 93% 30.24 in 4.0 mi NW 3.5 mph - N/A   Overcast
9:37 AM 33.8 °F 30.8 °F 32.0 °F 93% 30.25 in 4.0 mi NNW 3.5 mph - N/A   Overcast
9:55 AM 33.8 °F - 32.0 °F 93% 30.26 in 4.0 mi Calm Calm - N/A   Overcast
10:17 AM 33.8 °F 30.8 °F 30.2 °F 87% 30.26 in 4.0 mi North 3.5 mph - N/A   Overcast
10:37 AM 33.8 °F - 28.4 °F 81% 30.26 in 5.0 mi Calm Calm - N/A   Haze
10:55 AM 33.8 °F - 28.4 °F 81% 30.27 in 5.0 mi Calm Calm - N/A   Haze
11:17 AM 33.8 °F 30.8 °F 28.4 °F 81% 30.27 in 7.0 mi NNW 3.5 mph - N/A   Overcast
11:37 AM 33.8 °F - 28.4 °F 81% 30.27 in 7.0 mi Calm Calm - N/A   Overcast
11:55 AM 33.8 °F 30.8 °F 26.6 °F 75% 30.26 in 7.0 mi NNE 3.5 mph - N/A   Overcast
12:17 PM 33.8 °F 28.6 °F 26.6 °F 75% 30.26 in 7.0 mi NNW 5.8 mph - N/A   Overcast
12:37 PM 33.8 °F - 26.6 °F 75% 30.25 in 7.0 mi Calm Calm - N/A   Overcast
12:55 PM 33.8 °F - 26.6 °F 75% 30.25 in 7.0 mi Calm Calm - N/A   Overcast
1:17 PM 33.8 °F - 26.6 °F 75% 30.24 in 7.0 mi Calm Calm - N/A   Overcast
1:37 PM 33.8 °F - 26.6 °F 75% 30.24 in 7.0 mi Calm Calm - N/A   Overcast
1:55 PM 35.6 °F - 26.6 °F 70% 30.25 in 7.0 mi Calm Calm - N/A   Overcast
2:17 PM 33.8 °F - 26.6 °F 75% 30.25 in 7.0 mi Calm Calm - N/A   Overcast
2:37 PM 33.8 °F - 26.6 °F 75% 30.25 in 7.0 mi Calm Calm - N/A   Overcast
2:55 PM 33.8 °F - 28.4 °F 81% 30.24 in 7.0 mi Calm Calm - N/A   Overcast
3:16 PM 33.8 °F 30.8 °F 26.6 °F 75% 30.25 in 7.0 mi SSE 3.5 mph - N/A   Overcast
3:36 PM 33.8 °F 30.8 °F 26.6 °F 75% 30.24 in 7.0 mi ESE 3.5 mph - N/A   Overcast
3:55 PM 33.8 °F 28.6 °F 26.6 °F 75% 30.25 in 7.0 mi West 5.8 mph - N/A   Overcast
4:16 PM 33.8 °F 29.6 °F 28.4 °F 81% 30.26 in 5.0 mi West 4.6 mph - N/A   Haze
4:36 PM 33.8 °F 30.8 °F 28.4 °F 81% 30.26 in 5.0 mi West 3.5 mph - N/A   Haze
4:55 PM 33.8 °F 28.6 °F 28.4 °F 81% 30.26 in 5.0 mi West 5.8 mph - N/A   Haze
5:16 PM 33.8 °F - 28.4 °F 81% 30.26 in 7.0 mi Calm Calm - N/A   Overcast
5:36 PM 33.8 °F 28.6 °F 28.4 °F 81% 30.26 in 7.0 mi WNW 5.8 mph - N/A   Overcast
5:55 PM 33.8 °F 29.6 °F 28.4 °F 81% 30.25 in 7.0 mi West 4.6 mph - N/A   Overcast
6:16 PM 33.8 °F - 28.4 °F 81% 30.25 in 7.0 mi Calm Calm - N/A   Overcast
6:36 PM 33.8 °F - 28.4 °F 81% 30.24 in 7.0 mi Calm Calm - N/A   Overcast
6:55 PM 33.8 °F - 28.4 °F 81% 30.24 in 7.0 mi Calm Calm - N/A   Overcast
7:17 PM 33.8 °F - 28.4 °F 81% 30.24 in 7.0 mi Calm Calm - N/A   Overcast
7:36 PM 33.8 °F - 28.4 °F 81% 30.23 in 7.0 mi Calm Calm - N/A   Overcast
7:55 PM 33.8 °F - 28.4 °F 81% 30.23 in 7.0 mi Calm Calm - N/A   Overcast
8:16 PM 33.8 °F 30.8 °F 28.4 °F 81% 30.24 in 7.0 mi SW 3.5 mph - N/A   Overcast
8:36 PM 32.0 °F 28.7 °F 28.4 °F 87% 30.24 in 7.0 mi SSW 3.5 mph - N/A   Overcast
8:55 PM 32.0 °F 26.4 °F 28.4 °F 87% 30.24 in 7.0 mi SSW 5.8 mph - N/A   Overcast
9:16 PM 32.0 °F 25.6 °F 28.4 °F 87% 30.24 in 7.0 mi WSW 6.9 mph - N/A   Overcast
9:36 PM 32.0 °F 28.7 °F 28.4 °F 87% 30.25 in 7.0 mi SW 3.5 mph - N/A   Overcast
9:55 PM 32.0 °F 26.4 °F 28.4 °F 87% 30.25 in 7.0 mi SW 5.8 mph - N/A   Overcast
10:16 PM 32.0 °F 25.6 °F 28.4 °F 87% 30.24 in 7.0 mi SSW 6.9 mph - N/A   Overcast
10:36 PM 32.0 °F 26.4 °F 28.4 °F 87% 30.22 in 7.0 mi SSW 5.8 mph - N/A   Overcast
10:55 PM 32.0 °F 25.6 °F 28.4 °F 87% 30.22 in 7.0 mi SSW 6.9 mph - N/A   Overcast
11:16 PM 32.0 °F 25.6 °F 28.4 °F 87% 30.22 in 7.0 mi SW 6.9 mph - N/A   Overcast
11:37 PM 32.0 °F 25.6 °F 28.4 °F 87% 30.22 in 7.0 mi SSW 6.9 mph - N/A   Overcast
11:55 PM 32.0 °F 24.2 °F 28.4 °F 87% 30.22 in 7.0 mi SSW 9.2 mph - N/A   Overcast